Regional Weather Roundup
Issued by NWS

Home | Current Version | Previous Version | Graphics & Text | Print | Product List | Glossary On
Versions: 1 2 3 4 5 6 7 8 9 10 11 12 13 14 15 16 17 18 19 20 21 22 23 24 25 26 27 28 29 30 31 32 33 34 35 36 37 38 39 40 41 42 43 44 45 46 47 48 49 50
000
ASUS45 KPSR 172210
RWRAZ

ARIZONA REGIONAL HOURLY WEATHER ROUNDUP
NATIONAL WEATHER SERVICE PHOENIX AZ
300 PM MST WED DEC 17 2014

NOTE: FAIR INDICATES FEW OR NO CLOUDS BELOW 12,000 FEET WITH NO
SIGNIFICANT WEATHER AND/OR OBSTRUCTIONS TO VISIBILITY.

AZZ001>003-036-172300-
NORTHWEST ARIZONA

CITY           SKY/WX    TMP DP  RH WIND       PRES   REMARKS
BULLHEAD CITY  CLOUDY    55  48  76 SW3       30.05S
KINGMAN        CLOUDY    46  40  79 SW13      30.02S
$$

AZZ004>008-015-016-018-172300-
NORTH CENTRAL ARIZONA

CITY           SKY/WX    TMP DP  RH WIND       PRES   REMARKS
GRAND CANYON   LGT SNOW  33  33 100 CALM      30.01S VSB 1
PRESCOTT       CLOUDY    41  33  73 SW8       30.03S
FLAGSTAFF      FLURRIES  33  30  88 SW10      30.01S WCI  25
PAYSON         CLOUDY    39  37  93 SW5       30.06F
PAGE           CLOUDY    41  36  82 NE5       29.99S
$$

AZZ009>014-017-172300-
NORTHEAST ARIZONA

CITY           SKY/WX    TMP DP  RH WIND       PRES   REMARKS
WINSLOW        CLOUDY    46  34  62 W13       30.01R
SAINT JOHNS    PTSUNNY   42  33  70 SW21      30.00R
WINDOW ROCK    CLOUDY    37  30  75 W10       29.98S WCI  30
SHOW LOW       LGT RAIN  36  32  87 SW16      30.05R WCI  26
$$

AZZ023-172300-
GREATER PHOENIX AREA

CITY           SKY/WX    TMP DP  RH WIND       PRES   REMARKS
PHOENIX        LGT RAIN  59  44  57 W3        30.04F
BUCKEYE          N/A     57  46  67 SW3       30.06F
GLENDALE       PTSUNNY   57  46  67 VRB5      30.06
LUKE AFB       PTSUNNY   58  46  65 CALM      30.05S
DEER VALLEY    PTSUNNY   55  45  68 CALM      30.04F
SCOTTSDALE     CLOUDY    55  46  71 CALM      30.06S
MESA-FALCON    PTSUNNY   55  45  67 W3        30.04F
MESA-GATEWAY   CLOUDY    55  46  71 CALM      30.07F
CHANDLER       LGT RAIN  57  48  72 VRB5      30.05F
$$

AZZ027-028-172300-
SOUTHWEST MARICOPA COUNTY AND PINAL COUNTY

CITY           SKY/WX    TMP DP  RH WIND       PRES   REMARKS
CASA GRANDE    CLOUDY    55  46  71 CALM      30.06R
GILA BEND      MOCLDY    57  50  77 NW8       30.06F
$$

AZZ503-504-507>509-172300-
SOUTHEAST ARIZONA

CITY           SKY/WX    TMP DP  RH WIND       PRES   REMARKS
TUCSON         LGT RAIN  55  46  71 SW6       30.06F
DAVIS-MONTHAN  LGT RAIN  53  47  80 SW6       30.04F
RYAN FIELD       N/A     55  54  94 W3        30.05F
NOGALES        MOSUNNY   56  38  50 SW16G24   30.07F
SIERRA VISTA   MOSUNNY   54  36  50 SW23G31   30.06F
DOUGLAS        MOSUNNY   54  39  57 SW22      30.07F
SAFFORD        PTSUNNY   54  39  57 NW15      30.02F
$$

AZZ020-021-025-026-031-172300-
SOUTHWEST ARIZONA

CITY           SKY/WX    TMP DP  RH WIND       PRES   REMARKS
YUMA           PTSUNNY  N/A N/A N/A S5        30.03S
$$

CAZ031-033-041-043-047-048-061-172300-
SOUTHERN CALIFORNIA

CITY           SKY/WX    TMP DP  RH WIND       PRES   REMARKS
DOWNTOWN L.A.  PTSUNNY   63  46  54 VRB3      30.04F
L.A. AIRPORT   PTSUNNY   61  50  67 W13       30.06S
SAN DIEGO      PTSUNNY   66  49  54 W14G20    30.09R
BURBANK        CLOUDY    61  41  47 SW6       30.04S
ONTARIO        PTSUNNY   59  45  59 W8        30.04R
RIVERSIDE      PTSUNNY   60  46  59 VRB6      30.04S
PALM SPRINGS   PTSUNNY   59  48  67 E7        30.05S
EL CENTRO NAS  MOSUNNY   63  53  70 CALM      30.02F
IMPERIAL       SUNNY     62  52  69 CALM      30.02F
BLYTHE         PTSUNNY   59  52  77 SE5       30.03F
NEEDLES        CLOUDY    58  47  66 SE6       30.03S
$$

NVZ020-UTZ003-172300-
SOUTHERN NEVADA-UTAH

CITY           SKY/WX    TMP DP  RH WIND       PRES   REMARKS
LAS VEGAS      CLOUDY    54  38  54 VRB3      29.97S
SALT LAKE CITY CLOUDY    40  31  70 NW3       29.98S
$$

NMZ009-TXZ055-172300-
NEW MEXICO-WEST TEXAS

CITY           SKY/WX    TMP DP  RH WIND       PRES   REMARKS
ALBUQUERQUE    CLOUDY    43  34  70 S3        29.97S
EL PASO        MOSUNNY   61  29  29 W17       30.00S
$$


........................KEY........................
SKY/WX - SKY CONDITION/WEATHER
TMP    - TEMPERATURE IN FAHRENHEIT
DP     - DEW POINT IN FAHRENHEIT
RH     - RELATIVE HUMIDITY IN PERCENT
WIND   - DIRECTION AND SPEED IN MILES PER HOUR (MPH)
VRB    - VARIABLE WIND DIRECTION
PRES   - MEAN SEA LEVEL PRESSURE IN INCHES OF MERCURY
         F - FALLING PRESSURE   R - RISING PRESSURE
         S - STEADY PRESSURE
VSB    - VISIBILITY IN MILES
HX     - HEAT INDEX IN FAHRENHEIT
WCI    - WIND CHILL INDEX IN FAHRENHEIT
TC     - TEMPERATURE IN CELSIUS WHICH IS ALSO KNOWN AS
         TEMPERATURE IN CENTIGRADE
AFB    - AIR FORCE BASE
         LUKE AFB IS LUKE AIR FORCE BASE
         DAVIS-MONTHAN IS DAVIS-MONTHAN AIR FORCE BASE
NAS    - NAVAL AIR STATION
         EL CENTRO NAS IS EL CENTRO NAVAL AIR STATION
N/A    - NOT AVAILABLE



USA.gov is the U.S. government's official web portal to all federal, state and local government web resources and services.